| time (UTC) | temp F | wind direction | speed MPH | gust MPH | rain 1hr in | rain 24hr in | rain mn in | humidity % | barometer mb |
| 20260502160205 | 49 | 320 | 9.0 | 20.0 | 0.00 | 0.00 | 0.00 | 45 | 1013.5 |
| 20260502151704 | 49 | 320 | 8.0 | 8.0 | 0.00 | 0.00 | 0.00 | 45 | 1013.6 |
| 20260502151204 | 49 | 320 | 8.0 | 8.0 | 0.00 | 0.00 | 0.00 | 46 | 1013.6 |
| 20260502150704 | 48 | 320 | 8.0 | 8.0 | 0.00 | 0.00 | 0.00 | 42 | 1013.6 |
| 20260502150204 | 48 | 320 | 8.0 | 8.0 | 0.00 | 0.00 | 0.00 | 44 | 1013.5 |
| 20260502130704 | 43 | 350 | 3.0 | 3.0 | 0.00 | 0.00 | 0.00 | 48 | 1013.4 |
| 20260502130204 | 43 | 348 | 3.0 | 3.0 | 0.00 | 0.00 | 0.00 | 47 | 1013.6 |
| 20260502123204 | 43 | 310 | 3.0 | 3.0 | 0.00 | 0.00 | 0.00 | 53 | 1013.3 |
| 20260502122705 | 42 | 310 | 3.0 | 3.0 | 0.00 | 0.00 | 0.00 | 51 | 1013.2 |
| 20260502122204 | 42 | 310 | 3.0 | 3.0 | 0.00 | 0.00 | 0.00 | 52 | 1013.2 |
| 20260502121704 | 42 | 310 | 3.0 | 3.0 | 0.00 | 0.00 | 0.00 | 52 | 1013.2 |
| 20260502121204 | 42 | 310 | 3.0 | 3.0 | 0.00 | 0.00 | 0.00 | 51 | 1013.1 |
| 20260502120704 | 42 | 310 | 3.0 | 3.0 | 0.00 | 0.00 | 0.00 | 50 | 1013.0 |
| 20260502120204 | 42 | 310 | 3.0 | 3.0 | 0.00 | 0.00 | 0.00 | 52 | 1013.1 |
| 20260502115704 | 42 | 310 | 3.0 | 3.0 | 0.00 | 0.00 | 0.00 | 54 | 1012.8 |
| 20260502115204 | 42 | 310 | 3.0 | 3.0 | 0.00 | 0.00 | 0.00 | 55 | 1012.9 |
| 20260502114704 | 41 | 310 | 3.0 | 3.0 | 0.00 | 0.00 | 0.00 | 60 | 1013.0 |
| 20260502114204 | 41 | 310 | 3.0 | 3.0 | 0.00 | 0.00 | 0.00 | 60 | 1013.2 |
| 20260502113704 | 41 | 310 | 3.0 | 3.0 | 0.00 | 0.00 | 0.00 | 63 | 1013.3 |
| 20260502113205 | 41 | 310 | 3.0 | 3.0 | 0.00 | 0.00 | 0.00 | 60 | 1013.1 |
| 20260502112204 | 41 | 310 | 3.0 | 3.0 | 0.00 | 0.00 | 0.00 | 62 | 1013.1 |
| 20260502111704 | 40 | 310 | 3.0 | 3.0 | 0.00 | 0.00 | 0.00 | 62 | 1013.1 |
| 20260502111204 | 40 | 310 | 3.0 | 3.0 | 0.00 | 0.00 | 0.00 | 64 | 1012.9 |
| 20260502110204 | 40 | 310 | 3.0 | 3.0 | 0.00 | 0.00 | 0.00 | 64 | 1012.7 |
| 20260502105704 | 40 | 310 | 3.0 | 3.0 | 0.00 | 0.00 | 0.00 | 68 | 1012.8 |
| 20260502105204 | 40 | 310 | 3.0 | 3.0 | 0.00 | 0.00 | 0.00 | 70 | 1012.6 |
| 20260502104704 | 40 | 310 | 3.0 | 3.0 | 0.00 | 0.00 | 0.00 | 69 | 1012.7 |
| 20260502104204 | 40 | 310 | 3.0 | 3.0 | 0.00 | 0.00 | 0.00 | 70 | 1012.7 |
| 20260502103204 | 40 | 310 | 3.0 | 3.0 | 0.00 | 0.00 | 0.00 | 69 | 1012.5 |
| 20260502102704 | 40 | 310 | 3.0 | 3.0 | 0.00 | 0.00 | 0.00 | 69 | 1012.7 |
| 20260502102204 | 40 | 310 | 3.0 | 3.0 | 0.00 | 0.00 | 0.00 | 69 | 1012.6 |
| 20260502101704 | 41 | 310 | 3.0 | 3.0 | 0.00 | 0.00 | 0.00 | 69 | 1012.6 |
| 20260502101204 | 41 | 310 | 3.0 | 3.0 | 0.00 | 0.00 | 0.00 | 69 | 1012.7 |
| 20260502100704 | 41 | 310 | 3.0 | 3.0 | 0.00 | 0.00 | 0.00 | 70 | 1012.7 |
| 20260502100204 | 41 | 309 | 5.0 | 7.0 | 0.00 | 0.00 | 0.00 | 70 | 1012.6 |
| 20260502090704 | 43 | 290 | 7.0 | 7.0 | 0.00 | 0.00 | 0.00 | 75 | 1013.2 |
| 20260502090204 | 43 | 291 | 7.0 | 8.0 | 0.00 | 0.00 | 0.00 | 75 | 1013.2 |
| 20260502071204 | 45 | 310 | 6.0 | 6.0 | 0.00 | 0.00 | 0.00 | 76 | 1012.9 |
| 20260502070704 | 45 | 310 | 6.0 | 6.0 | 0.00 | 0.00 | 0.00 | 76 | 1012.9 |
| 20260502070204 | 45 | 312 | 5.0 | 6.0 | 0.00 | 0.00 | 0.00 | 75 | 1012.9 |
| 20260502065704 | 45 | 10 | 5.0 | 5.0 | 0.00 | 0.00 | 0.00 | 76 | 1012.9 |
| 20260502065204 | 45 | 10 | 5.0 | 5.0 | 0.00 | 0.00 | 0.00 | 75 | 1012.9 |
| 20260502064204 | 45 | 10 | 5.0 | 5.0 | 0.00 | 0.00 | 0.00 | 76 | 1013.1 |
| 20260502063704 | 45 | 10 | 5.0 | 5.0 | 0.00 | 0.00 | 0.00 | 77 | 1013.1 |
| 20260502063204 | 45 | 10 | 5.0 | 5.0 | 0.00 | 0.00 | 0.00 | 77 | 1013.3 |
| 20260502062704 | 45 | 10 | 5.0 | 5.0 | 0.00 | 0.00 | 0.00 | 77 | 1013.4 |
| 20260502061204 | 45 | 10 | 5.0 | 5.0 | 0.00 | 0.00 | 0.00 | 76 | 1013.4 |
| 20260502060704 | 45 | 10 | 5.0 | 5.0 | 0.00 | 0.00 | 0.00 | 76 | 1013.6 |
| 20260502060204 | 46 | 8 | 5.0 | 5.0 | 0.00 | 0.00 | 0.00 | 75 | 1013.5 |
| 20260502055204 | 46 | 300 | 5.0 | 5.0 | 0.00 | 0.00 | 0.00 | 75 | 1013.5 |
| 20260502054204 | 46 | 300 | 5.0 | 5.0 | 0.00 | 0.00 | 0.00 | 76 | 1013.5 |
| 20260502053704 | 46 | 300 | 5.0 | 5.0 | 0.00 | 0.00 | 0.00 | 76 | 1013.6 |
| 20260502052704 | 46 | 300 | 5.0 | 5.0 | 0.00 | 0.00 | 0.00 | 76 | 1013.6 |
| 20260502052204 | 46 | 300 | 5.0 | 5.0 | 0.00 | 0.00 | 0.00 | 75 | 1013.6 |
| 20260502051703 | 46 | 300 | 5.0 | 5.0 | 0.00 | 0.00 | 0.00 | 76 | 1013.5 |
| 20260502050707 | 47 | 300 | 5.0 | 5.0 | 0.00 | 0.00 | 0.00 | 75 | 1013.4 |